EXS7TR GCLP-EGPH

Flight info

Callsign EXS7TR
Flight time 4h 10m
Altitude 37000
Route BIMBO DCT RAKUN DCT MANOX/M078F370 T13 OMOKO DCT GUNSO/N0445F370 DCT TIPUR DCT ROTEV DCT GOTNA DCT BLACA P600 TUNSO
Aircraft B738/M-SDE2E3FGHIRWXY/LB1

Departure

Time 2026-04-20 13:41
Airport Gran Canaria Airport (GCLP)

Arrival

Time 2026-04-20 17:52
Airport Edinburgh Airport (EGPH)
Time Latitude Longitude Altitude Speed Heading
2026-04-20 13:02 27.93645 -15.38909 84 ft 0 kts 292°
2026-04-20 13:24 27.93642 -15.38902 84 ft 2 kts 291°
2026-04-20 13:24 27.93635 -15.38881 86 ft 3 kts 289°
2026-04-20 13:24 27.93629 -15.38859 86 ft 3 kts 290°
2026-04-20 13:24 27.93623 -15.38841 84 ft 3 kts 272°
2026-04-20 13:25 27.93627 -15.38826 88 ft 3 kts 217°
2026-04-20 13:25 27.93644 -15.38815 88 ft 3 kts 201°
2026-04-20 13:25 27.93656 -15.38810 87 ft 0 kts 201°
2026-04-20 13:29 27.93653 -15.38811 86 ft 1 kts 201°
2026-04-20 13:29 27.93631 -15.38821 88 ft 5 kts 201°
2026-04-20 13:30 27.93597 -15.38836 84 ft 5 kts 201°
2026-04-20 13:30 27.93563 -15.38850 84 ft 5 kts 201°
2026-04-20 13:30 27.93530 -15.38863 83 ft 5 kts 195°
2026-04-20 13:30 27.93496 -15.38874 86 ft 5 kts 196°
2026-04-20 13:31 27.93462 -15.38871 81 ft 5 kts 153°
2026-04-20 13:31 27.93436 -15.38832 81 ft 7 kts 115°
2026-04-20 13:31 27.93409 -15.38773 72 ft 10 kts 135°
2026-04-20 13:31 27.93339 -15.38782 67 ft 12 kts 202°
2026-04-20 13:32 27.93266 -15.38816 74 ft 11 kts 202°
2026-04-20 13:32 27.93195 -15.38848 72 ft 11 kts 201°
2026-04-20 13:32 27.93127 -15.38884 68 ft 11 kts 204°
2026-04-20 13:32 27.93060 -15.38915 75 ft 10 kts 201°
2026-04-20 13:33 27.92993 -15.38944 75 ft 11 kts 201°
2026-04-20 13:33 27.92919 -15.38977 84 ft 12 kts 201°
2026-04-20 13:33 27.92832 -15.39015 85 ft 15 kts 201°
2026-04-20 13:33 27.92739 -15.39056 88 ft 14 kts 201°
2026-04-20 13:34 27.92646 -15.39098 89 ft 14 kts 201°
2026-04-20 13:34 27.92556 -15.39137 93 ft 13 kts 201°
2026-04-20 13:34 27.92471 -15.39175 95 ft 13 kts 201°
2026-04-20 13:34 27.92388 -15.39211 97 ft 13 kts 201°
2026-04-20 13:35 27.92307 -15.39247 98 ft 12 kts 201°
2026-04-20 13:35 27.92228 -15.39282 98 ft 12 kts 201°
2026-04-20 13:35 27.92147 -15.39303 95 ft 13 kts 183°
2026-04-20 13:35 27.92052 -15.39300 91 ft 14 kts 177°
2026-04-20 13:36 27.92017 -15.39298 90 ft 0 kts 176°
2026-04-20 13:38 27.91991 -15.39296 91 ft 9 kts 176°
2026-04-20 13:38 27.91923 -15.39265 90 ft 10 kts 129°
2026-04-20 13:39 27.91939 -15.39210 84 ft 9 kts 20°
2026-04-20 13:39 27.91944 -15.39208 84 ft 0 kts 20°
2026-04-20 13:40 27.91952 -15.39205 84 ft 5 kts 20°
2026-04-20 13:40 27.92187 -15.39101 81 ft 72 kts 21°
2026-04-20 13:41 27.92871 -15.38798 59 ft 136 kts 21°
2026-04-20 13:41 27.93921 -15.38333 118 ft 183 kts 24°
2026-04-20 13:41 27.95097 -15.37783 991 ft 176 kts 23°
2026-04-20 13:41 27.96261 -15.37258 1720 ft 187 kts 21°
2026-04-20 13:42 27.97536 -15.36718 2209 ft 207 kts 20°
2026-04-20 13:42 28.00482 -15.35470 2842 ft 240 kts 20°
2026-04-20 13:42 28.02081 -15.34772 3221 ft 251 kts 20°
2026-04-20 13:43 28.03678 -15.34060 3826 ft 253 kts 21°
2026-04-20 13:43 28.05358 -15.33330 3926 ft 261 kts 20°
2026-04-20 13:43 28.07065 -15.32610 4016 ft 262 kts 20°
2026-04-20 13:43 28.08791 -15.31876 4394 ft 270 kts 20°
2026-04-20 13:44 28.10578 -15.31107 4825 ft 279 kts 20°
2026-04-20 13:44 28.12396 -15.30319 5383 ft 282 kts 21°
2026-04-20 13:44 28.14253 -15.29517 5882 ft 288 kts 20°
2026-04-20 13:44 28.16188 -15.28863 6361 ft 298 kts 15°
2026-04-20 13:45 28.18277 -15.28279 6629 ft 317 kts 13°
2026-04-20 13:45 28.20442 -15.27696 7310 ft 321 kts 13°
2026-04-20 13:45 28.22624 -15.27100 8074 ft 323 kts 13°
2026-04-20 13:45 28.24816 -15.26491 8818 ft 326 kts 13°
2026-04-20 13:46 28.27037 -15.25863 9501 ft 331 kts 13°
2026-04-20 13:46 28.29287 -15.25223 10159 ft 336 kts 13°
2026-04-20 13:46 28.31625 -15.24556 10393 ft 358 kts 13°
2026-04-20 13:46 28.34125 -15.23938 10586 ft 377 kts
2026-04-20 13:47 28.36685 -15.24274 11063 ft 376 kts 337°
2026-04-20 13:47 28.38940 -15.25666 11788 ft 365 kts 314°
2026-04-20 13:47 28.40564 -15.27803 12521 ft 354 kts 295°
2026-04-20 13:47 28.41491 -15.30349 13175 ft 347 kts 276°
2026-04-20 13:48 28.41861 -15.33054 13818 ft 351 kts 281°
2026-04-20 13:48 28.42941 -15.35585 14395 ft 365 kts 302°
2026-04-20 13:48 28.44674 -15.37725 15055 ft 370 kts 310°
2026-04-20 13:48 28.46527 -15.39778 15678 ft 372 kts 311°
2026-04-20 13:49 28.48397 -15.41828 16297 ft 374 kts 311°
2026-04-20 13:49 28.50249 -15.43881 16918 ft 376 kts 311°
2026-04-20 13:49 28.52114 -15.45976 17543 ft 378 kts 310°
2026-04-20 13:49 28.53984 -15.48096 18156 ft 380 kts 310°
2026-04-20 13:50 28.55878 -15.50207 18676 ft 384 kts 315°
2026-04-20 13:50 28.58180 -15.51815 19164 ft 397 kts 334°
2026-04-20 13:50 28.60900 -15.52573 19706 ft 405 kts 346°
2026-04-20 13:50 28.63688 -15.53066 20210 ft 408 kts 347°
2026-04-20 13:51 28.66515 -15.53519 20673 ft 412 kts 348°
2026-04-20 13:51 28.69373 -15.53971 21152 ft 415 kts 348°
2026-04-20 13:51 28.72241 -15.54435 21641 ft 417 kts 347°
2026-04-20 13:51 28.75123 -15.54914 22121 ft 420 kts 347°
2026-04-20 13:52 28.78022 -15.55407 22583 ft 423 kts 347°
2026-04-20 13:52 28.80939 -15.55912 23036 ft 425 kts 347°
2026-04-20 13:52 28.83875 -15.56423 23485 ft 428 kts 347°
2026-04-20 13:52 28.86826 -15.56939 23861 ft 430 kts 346°
2026-04-20 13:53 28.89789 -15.57458 24227 ft 433 kts 346°
2026-04-20 13:53 28.92775 -15.57981 24595 ft 435 kts 346°
2026-04-20 13:53 28.95779 -15.58508 24956 ft 438 kts 346°
2026-04-20 13:53 28.98799 -15.59037 25308 ft 440 kts 346°
2026-04-20 13:54 29.01836 -15.59569 25658 ft 443 kts 346°
2026-04-20 13:54 29.04890 -15.60105 25994 ft 445 kts 346°
2026-04-20 13:54 29.07962 -15.60644 26325 ft 448 kts 346°
2026-04-20 13:54 29.11051 -15.61187 26651 ft 450 kts 346°
2026-04-20 13:55 29.14156 -15.61732 26982 ft 453 kts 346°
2026-04-20 13:55 29.17235 -15.62273 27296 ft 455 kts 346°
2026-04-20 13:55 29.20372 -15.62825 27602 ft 457 kts 346°
2026-04-20 13:55 29.23526 -15.63380 27914 ft 460 kts 346°
2026-04-20 13:56 29.26695 -15.63938 28205 ft 462 kts 346°
2026-04-20 13:56 29.29880 -15.64499 28495 ft 464 kts 345°
2026-04-20 13:56 29.33081 -15.65064 28783 ft 466 kts 345°
2026-04-20 13:56 29.36304 -15.65635 29062 ft 469 kts 345°
2026-04-20 13:57 29.39528 -15.66212 29328 ft 471 kts 345°
2026-04-20 13:57 29.42782 -15.66797 29595 ft 473 kts 345°
2026-04-20 13:57 29.46041 -15.67383 29879 ft 475 kts 345°
2026-04-20 13:57 29.49313 -15.67972 30115 ft 477 kts 345°
2026-04-20 13:58 29.52595 -15.68562 30357 ft 478 kts 345°
2026-04-20 13:58 29.55887 -15.69153 30644 ft 477 kts 345°
2026-04-20 13:58 29.59164 -15.69741 30999 ft 476 kts 345°
2026-04-20 13:58 29.62419 -15.70325 31363 ft 473 kts 345°
2026-04-20 13:59 29.65677 -15.70910 31685 ft 472 kts 344°
2026-04-20 13:59 29.68922 -15.71495 31972 ft 472 kts 344°
2026-04-20 13:59 29.72164 -15.72080 32268 ft 471 kts 344°
2026-04-20 13:59 29.75403 -15.72665 32594 ft 469 kts 344°
2026-04-20 14:00 29.78624 -15.73246 32926 ft 468 kts 344°
2026-04-20 14:00 29.81835 -15.73827 33217 ft 467 kts 344°
2026-04-20 14:00 29.85041 -15.74407 33506 ft 466 kts 344°
2026-04-20 14:00 29.88240 -15.74986 33796 ft 465 kts 343°
2026-04-20 14:01 29.91388 -15.75556 34055 ft 463 kts 343°
2026-04-20 14:01 29.94570 -15.76132 34294 ft 462 kts 343°
2026-04-20 14:01 29.97754 -15.76710 34516 ft 462 kts 344°
2026-04-20 14:01 30.00926 -15.77285 34737 ft 461 kts 344°
2026-04-20 14:02 30.04100 -15.77861 34958 ft 460 kts 344°
2026-04-20 14:02 30.07261 -15.78435 35177 ft 459 kts 344°
2026-04-20 14:02 30.10416 -15.79008 35389 ft 459 kts 344°
2026-04-20 14:02 30.13573 -15.79583 35585 ft 458 kts 344°
2026-04-20 14:03 30.16714 -15.80155 35780 ft 458 kts 344°
2026-04-20 14:03 30.19822 -15.80721 35978 ft 457 kts 344°
2026-04-20 14:03 30.22961 -15.81294 36147 ft 457 kts 344°
2026-04-20 14:03 30.26100 -15.81867 36313 ft 457 kts 345°
2026-04-20 14:04 30.29272 -15.82446 36493 ft 456 kts 345°
2026-04-20 14:04 30.32411 -15.83019 36683 ft 455 kts 345°
2026-04-20 14:04 30.35496 -15.83583 36838 ft 455 kts 345°
2026-04-20 14:04 30.38633 -15.84158 36827 ft 458 kts 345°
2026-04-20 14:05 30.44925 -15.85311 36833 ft 456 kts 345°
2026-04-20 14:05 30.51171 -15.86454 36835 ft 453 kts 345°
2026-04-20 14:06 30.57379 -15.87593 36832 ft 450 kts 345°
2026-04-20 14:06 30.63558 -15.88729 36830 ft 449 kts 345°
2026-04-20 14:07 30.69723 -15.89865 36835 ft 448 kts 345°
2026-04-20 14:07 30.75891 -15.91002 36829 ft 449 kts 346°
2026-04-20 14:08 30.82076 -15.92145 36831 ft 451 kts 346°
2026-04-20 14:08 30.88289 -15.93293 36826 ft 453 kts 346°
2026-04-20 14:09 30.94532 -15.94448 36825 ft 455 kts 346°
2026-04-20 14:09 31.00805 -15.95611 36818 ft 457 kts 346°
2026-04-20 14:10 31.07106 -15.96779 36818 ft 459 kts 346°
2026-04-20 14:10 31.13430 -15.97954 36817 ft 461 kts 346°
2026-04-20 14:11 31.19734 -15.99126 36810 ft 462 kts 346°
2026-04-20 14:11 31.26072 -16.00306 36807 ft 462 kts 346°
2026-04-20 14:12 31.32413 -16.01489 36800 ft 461 kts 346°
2026-04-20 14:12 31.38740 -16.02671 36804 ft 460 kts 346°
2026-04-20 14:13 31.45126 -16.03155 36825 ft 465 kts
2026-04-20 14:13 31.51562 -16.02350 36804 ft 465 kts
2026-04-20 14:14 31.56949 -16.01640 36786 ft 464 kts
2026-04-20 14:14 31.63367 -16.00847 36791 ft 463 kts
2026-04-20 14:15 31.69780 -16.00095 36789 ft 463 kts
2026-04-20 14:15 31.76190 -15.99355 36787 ft 463 kts
2026-04-20 14:16 31.82605 -15.98613 36785 ft 463 kts
2026-04-20 14:16 31.89028 -15.97867 36780 ft 464 kts
2026-04-20 14:17 31.95469 -15.97117 36778 ft 465 kts
2026-04-20 14:17 32.01917 -15.96365 36770 ft 466 kts
2026-04-20 14:18 32.08337 -15.95615 36771 ft 467 kts
2026-04-20 14:18 32.14814 -15.94857 36770 ft 468 kts
2026-04-20 14:19 32.21303 -15.94097 36766 ft 469 kts
2026-04-20 14:19 32.27802 -15.93334 36759 ft 470 kts
2026-04-20 14:20 32.34353 -15.92565 36758 ft 470 kts
2026-04-20 14:20 32.40828 -15.91803 36756 ft 470 kts
2026-04-20 14:21 32.47341 -15.91035 36750 ft 470 kts
2026-04-20 14:21 32.53859 -15.90266 36749 ft 470 kts
2026-04-20 14:22 32.60366 -15.89497 36745 ft 470 kts
2026-04-20 14:22 32.66867 -15.88728 36744 ft 469 kts
2026-04-20 14:23 32.73371 -15.87957 36739 ft 469 kts
2026-04-20 14:23 32.79861 -15.87187 36737 ft 468 kts
2026-04-20 14:24 32.86304 -15.86421 36739 ft 468 kts
2026-04-20 14:24 32.92793 -15.85648 36736 ft 468 kts
2026-04-20 14:25 32.99274 -15.84876 36734 ft 468 kts
2026-04-20 14:25 33.05755 -15.84102 36731 ft 468 kts
2026-04-20 14:26 33.12239 -15.83327 36733 ft 468 kts
2026-04-20 14:26 33.18726 -15.82550 36735 ft 469 kts
2026-04-20 14:27 33.25227 -15.81771 36730 ft 469 kts
2026-04-20 14:27 33.31727 -15.80990 36730 ft 470 kts
2026-04-20 14:28 33.38229 -15.80208 36729 ft 470 kts
2026-04-20 14:28 33.44745 -15.79423 36733 ft 471 kts
2026-04-20 14:29 33.51270 -15.78636 36724 ft 471 kts
2026-04-20 14:29 33.57808 -15.77831 36723 ft 472 kts
2026-04-20 14:30 33.64295 -15.76909 36729 ft 473 kts
2026-04-20 14:30 33.70827 -15.75942 36718 ft 473 kts
2026-04-20 14:31 33.77371 -15.74983 36719 ft 473 kts
2026-04-20 14:31 33.83919 -15.74034 36715 ft 473 kts
2026-04-20 14:32 33.90425 -15.73093 36712 ft 473 kts
2026-04-20 14:32 33.96968 -15.72146 36712 ft 474 kts
2026-04-20 14:33 34.03519 -15.71196 36712 ft 473 kts
2026-04-20 14:33 34.10068 -15.70244 36708 ft 474 kts
2026-04-20 14:34 34.16498 -15.69308 36710 ft 473 kts
2026-04-20 14:34 34.23040 -15.68354 36705 ft 473 kts
2026-04-20 14:35 34.29590 -15.67397 36703 ft 473 kts
2026-04-20 14:35 34.36089 -15.66447 36701 ft 474 kts
2026-04-20 14:36 34.42633 -15.65488 36698 ft 474 kts
2026-04-20 14:36 34.49186 -15.64527 36699 ft 474 kts
2026-04-20 14:37 34.55734 -15.63565 36699 ft 474 kts
2026-04-20 14:37 34.62293 -15.62599 36700 ft 474 kts
2026-04-20 14:38 34.68849 -15.61633 36695 ft 475 kts
2026-04-20 14:38 34.75408 -15.60665 36694 ft 475 kts
2026-04-20 14:39 34.81972 -15.59694 36693 ft 475 kts
2026-04-20 14:39 34.88541 -15.58721 36694 ft 476 kts
2026-04-20 14:40 34.95115 -15.57745 36693 ft 476 kts
2026-04-20 14:40 35.01694 -15.56768 36692 ft 476 kts
2026-04-20 14:41 35.08271 -15.55789 36689 ft 477 kts
2026-04-20 14:41 35.14860 -15.54806 36687 ft 477 kts
2026-04-20 14:42 35.21419 -15.53827 36692 ft 478 kts
2026-04-20 14:42 35.28023 -15.52839 36690 ft 478 kts
2026-04-20 14:43 35.34628 -15.51850 36691 ft 478 kts
2026-04-20 14:43 35.41238 -15.50858 36692 ft 479 kts
2026-04-20 14:44 35.47852 -15.49863 36690 ft 479 kts
2026-04-20 14:44 35.54477 -15.48866 36692 ft 479 kts
2026-04-20 14:45 35.61091 -15.47868 36684 ft 479 kts
2026-04-20 14:45 35.67722 -15.46867 36693 ft 480 kts
2026-04-20 14:46 35.74349 -15.45864 36702 ft 480 kts
2026-04-20 14:46 35.80941 -15.44864 36697 ft 480 kts
2026-04-20 14:47 35.87574 -15.43857 36699 ft 480 kts
2026-04-20 14:48 35.97537 -15.42341 36697 ft 481 kts
2026-04-20 14:48 36.04179 -15.41329 36698 ft 481 kts
2026-04-20 14:49 36.10824 -15.40313 36704 ft 481 kts
2026-04-20 14:49 36.17480 -15.39295 36702 ft 481 kts
2026-04-20 14:50 36.24158 -15.38605 36693 ft 481 kts
2026-04-20 14:50 36.30844 -15.38328 36704 ft 481 kts
2026-04-20 14:51 36.37491 -15.38084 36703 ft 481 kts
2026-04-20 14:51 36.44192 -15.37790 36707 ft 481 kts
2026-04-20 14:52 36.50890 -15.37465 36706 ft 482 kts
2026-04-20 14:52 36.57592 -15.37132 36713 ft 482 kts
2026-04-20 14:53 36.64297 -15.36799 36714 ft 482 kts
2026-04-20 14:53 36.71004 -15.36467 36709 ft 482 kts
2026-04-20 14:54 36.77713 -15.36135 36714 ft 483 kts
2026-04-20 14:54 36.84425 -15.35803 36712 ft 483 kts
2026-04-20 14:55 36.91146 -15.35469 36720 ft 483 kts
2026-04-20 14:55 36.97862 -15.35135 36725 ft 483 kts
2026-04-20 14:56 37.04582 -15.34801 36727 ft 483 kts
2026-04-20 14:56 37.11305 -15.34465 36723 ft 483 kts
2026-04-20 14:57 37.18031 -15.34129 36730 ft 484 kts
2026-04-20 14:57 37.24758 -15.33792 36732 ft 484 kts
2026-04-20 14:58 37.31487 -15.33454 36729 ft 484 kts
2026-04-20 14:58 37.38225 -15.33116 36738 ft 484 kts
2026-04-20 14:59 37.43816 -15.32834 36740 ft 484 kts
2026-04-20 14:59 37.50550 -15.32495 36745 ft 484 kts
2026-04-20 15:00 37.58387 -15.32099 36747 ft 484 kts
2026-04-20 15:00 37.63987 -15.31815 36752 ft 484 kts
2026-04-20 15:01 37.70774 -15.31471 36755 ft 484 kts
2026-04-20 15:01 37.77507 -15.31129 36758 ft 484 kts
2026-04-20 15:02 37.84238 -15.30786 36760 ft 484 kts
2026-04-20 15:02 37.90974 -15.30443 36763 ft 484 kts
2026-04-20 15:03 37.97692 -15.30100 36764 ft 484 kts
2026-04-20 15:03 38.04421 -15.29755 36765 ft 484 kts
2026-04-20 15:04 38.11146 -15.29411 36767 ft 484 kts
2026-04-20 15:04 38.17827 -15.29067 36774 ft 484 kts
2026-04-20 15:05 38.24560 -15.28721 36774 ft 484 kts
2026-04-20 15:05 38.31306 -15.28373 36775 ft 485 kts
2026-04-20 15:06 38.38059 -15.28025 36776 ft 486 kts
2026-04-20 15:06 38.44824 -15.27675 36777 ft 487 kts
2026-04-20 15:07 38.51600 -15.27323 36780 ft 488 kts
2026-04-20 15:07 38.58389 -15.26971 36777 ft 489 kts
2026-04-20 15:08 38.65196 -15.26617 36778 ft 489 kts
2026-04-20 15:08 38.71960 -15.26264 36782 ft 490 kts
2026-04-20 15:09 38.78775 -15.25908 36784 ft 490 kts
2026-04-20 15:09 38.85602 -15.25551 36785 ft 490 kts
2026-04-20 15:10 38.92427 -15.25193 36786 ft 490 kts
2026-04-20 15:10 38.99236 -15.24835 36782 ft 490 kts
2026-04-20 15:11 39.06040 -15.24477 36790 ft 489 kts
2026-04-20 15:11 39.12840 -15.24118 36791 ft 488 kts
2026-04-20 15:12 39.19620 -15.23760 36794 ft 487 kts
2026-04-20 15:12 39.26352 -15.23404 36797 ft 486 kts
2026-04-20 15:13 39.33120 -15.23045 36803 ft 486 kts
2026-04-20 15:13 39.39873 -15.22686 36811 ft 485 kts
2026-04-20 15:14 39.46614 -15.22327 36820 ft 485 kts
2026-04-20 15:14 39.53371 -15.21967 36826 ft 485 kts
2026-04-20 15:15 39.60117 -15.21606 36829 ft 486 kts
2026-04-20 15:15 39.66886 -15.21244 36831 ft 486 kts
2026-04-20 15:16 39.73655 -15.20880 36830 ft 487 kts
2026-04-20 15:16 39.80427 -15.20516 36845 ft 488 kts
2026-04-20 15:17 39.87223 -15.20150 36848 ft 488 kts
2026-04-20 15:17 39.93976 -15.19785 36846 ft 489 kts
2026-04-20 15:18 40.00819 -15.19415 36852 ft 490 kts
2026-04-20 15:18 40.07594 -15.19048 36857 ft 490 kts
2026-04-20 15:19 40.14417 -15.18678 36856 ft 491 kts
2026-04-20 15:19 40.21242 -15.18306 36857 ft 491 kts
2026-04-20 15:20 40.28069 -15.17934 36860 ft 491 kts
2026-04-20 15:20 40.34911 -15.17560 36867 ft 492 kts
2026-04-20 15:21 40.41747 -15.17186 36868 ft 492 kts
2026-04-20 15:21 40.48585 -15.16811 36870 ft 492 kts
2026-04-20 15:22 40.55431 -15.16434 36874 ft 492 kts
2026-04-20 15:22 40.62265 -15.16058 36876 ft 492 kts
2026-04-20 15:23 40.69106 -15.15680 36879 ft 492 kts
2026-04-20 15:23 40.75946 -15.15302 36877 ft 492 kts
2026-04-20 15:24 40.82786 -15.14923 36883 ft 492 kts
2026-04-20 15:24 40.89640 -15.14542 36886 ft 492 kts
2026-04-20 15:25 40.96440 -15.14163 36884 ft 492 kts
2026-04-20 15:25 41.03278 -15.13782 36886 ft 492 kts
2026-04-20 15:26 41.10116 -15.13400 36885 ft 492 kts
2026-04-20 15:26 41.16955 -15.13017 36889 ft 492 kts
2026-04-20 15:27 41.23802 -15.12633 36889 ft 492 kts
2026-04-20 15:27 41.30649 -15.12247 36891 ft 492 kts
2026-04-20 15:28 41.37481 -15.11862 36891 ft 492 kts
2026-04-20 15:28 41.44282 -15.11478 36891 ft 492 kts
2026-04-20 15:29 41.51128 -15.11091 36892 ft 492 kts
2026-04-20 15:29 41.57970 -15.10703 36896 ft 492 kts
2026-04-20 15:30 41.64807 -15.10314 36888 ft 492 kts
2026-04-20 15:30 41.71654 -15.09924 36887 ft 491 kts
2026-04-20 15:31 41.78502 -15.09533 36892 ft 491 kts
2026-04-20 15:31 41.85327 -15.09143 36904 ft 491 kts
2026-04-20 15:32 41.92128 -15.08753 36889 ft 491 kts
2026-04-20 15:32 41.98948 -15.08192 36877 ft 493 kts
2026-04-20 15:33 42.05532 -15.05630 36908 ft 492 kts 22°
2026-04-20 15:33 42.11898 -15.02172 36884 ft 493 kts 22°
2026-04-20 15:34 42.18251 -14.98699 36885 ft 493 kts 22°
2026-04-20 15:34 42.24631 -14.95274 36885 ft 493 kts 22°
2026-04-20 15:35 42.31024 -14.91873 36887 ft 494 kts 21°
2026-04-20 15:35 42.37417 -14.88474 36897 ft 494 kts 21°
2026-04-20 15:36 42.43819 -14.85059 36893 ft 494 kts 21°
2026-04-20 15:36 42.50169 -14.81662 36887 ft 494 kts 21°
2026-04-20 15:37 42.56560 -14.78234 36902 ft 494 kts 21°
2026-04-20 15:37 42.62948 -14.74801 36899 ft 494 kts 21°
2026-04-20 15:38 42.69332 -14.71362 36892 ft 493 kts 21°
2026-04-20 15:38 42.75719 -14.67914 36905 ft 493 kts 21°
2026-04-20 15:39 42.82102 -14.64461 36918 ft 494 kts 22°
2026-04-20 15:39 42.88540 -14.60970 36889 ft 501 kts 22°
2026-04-20 15:40 42.94972 -14.57475 36889 ft 492 kts 22°
2026-04-20 15:40 43.01305 -14.54026 36899 ft 489 kts 22°
2026-04-20 15:41 43.07591 -14.50594 36904 ft 489 kts 22°
2026-04-20 15:41 43.13910 -14.47137 36900 ft 489 kts 22°
2026-04-20 15:42 43.20224 -14.43675 36906 ft 489 kts 22°
2026-04-20 15:42 43.26550 -14.40199 36899 ft 490 kts 22°
2026-04-20 15:43 43.32888 -14.36707 36911 ft 490 kts 22°
2026-04-20 15:43 43.39224 -14.33210 36908 ft 491 kts 22°
2026-04-20 15:44 43.45563 -14.29703 36911 ft 491 kts 22°
2026-04-20 15:44 43.50835 -14.26780 36897 ft 491 kts 22°
2026-04-20 15:45 43.57175 -14.23258 36911 ft 491 kts 22°
2026-04-20 15:45 43.63519 -14.19725 36903 ft 491 kts 22°
2026-04-20 15:46 43.69849 -14.16192 36904 ft 490 kts 22°
2026-04-20 15:46 43.76129 -14.12679 36901 ft 490 kts 22°
2026-04-20 15:47 43.82451 -14.09134 36908 ft 489 kts 22°
2026-04-20 15:47 43.88755 -14.05592 36913 ft 488 kts 22°
2026-04-20 15:48 43.95055 -14.02043 36917 ft 488 kts 22°
2026-04-20 15:48 44.01329 -13.98501 36909 ft 487 kts 22°
2026-04-20 15:49 44.07606 -13.94950 36910 ft 486 kts 22°
2026-04-20 15:49 44.13872 -13.91396 36916 ft 485 kts 22°
2026-04-20 15:50 44.20121 -13.87844 36903 ft 485 kts 22°
2026-04-20 15:50 44.26367 -13.84285 36909 ft 484 kts 22°
2026-04-20 15:51 44.32551 -13.80754 36909 ft 484 kts 22°
2026-04-20 15:51 44.38784 -13.77186 36914 ft 483 kts 22°
2026-04-20 15:52 44.45005 -13.73617 36914 ft 483 kts 22°
2026-04-20 15:52 44.51226 -13.70040 36913 ft 483 kts 22°
2026-04-20 15:53 44.60564 -13.64655 36915 ft 483 kts 22°
2026-04-20 15:53 44.66786 -13.61056 36914 ft 484 kts 22°
2026-04-20 15:54 44.73010 -13.57448 36918 ft 484 kts 22°
2026-04-20 15:54 44.79234 -13.53831 36915 ft 484 kts 22°
2026-04-20 15:55 44.85457 -13.50206 36922 ft 484 kts 22°
2026-04-20 15:55 44.91642 -13.46595 36920 ft 484 kts 22°
2026-04-20 15:56 44.97855 -13.42960 36922 ft 483 kts 22°
2026-04-20 15:56 45.04240 -13.40059 36934 ft 482 kts 13°
2026-04-20 15:57 45.10773 -13.37874 36920 ft 482 kts 12°
2026-04-20 15:57 45.17297 -13.35716 36918 ft 481 kts 13°
2026-04-20 15:58 45.23806 -13.33504 36922 ft 481 kts 13°
2026-04-20 15:58 45.30304 -13.31258 36921 ft 480 kts 13°
2026-04-20 15:59 45.36791 -13.29001 36925 ft 480 kts 13°
2026-04-20 15:59 45.43270 -13.26744 36921 ft 479 kts 14°
2026-04-20 16:00 45.49748 -13.24483 36927 ft 478 kts 14°
2026-04-20 16:00 45.56212 -13.22223 36922 ft 478 kts 14°
2026-04-20 16:01 45.62657 -13.19964 36918 ft 477 kts 14°
2026-04-20 16:01 45.69103 -13.17699 36922 ft 477 kts 14°
2026-04-20 16:02 45.75555 -13.15426 36922 ft 476 kts 14°
2026-04-20 16:02 45.81950 -13.13169 36926 ft 476 kts 14°
2026-04-20 16:03 45.88378 -13.10894 36926 ft 475 kts 14°
2026-04-20 16:03 45.94794 -13.08617 36917 ft 475 kts 14°
2026-04-20 16:04 46.01214 -13.06335 36921 ft 475 kts 14°
2026-04-20 16:04 46.07637 -13.04045 36929 ft 475 kts 14°
2026-04-20 16:05 46.14067 -13.01748 36928 ft 475 kts 14°
2026-04-20 16:05 46.20485 -12.99450 36924 ft 475 kts 14°
2026-04-20 16:06 46.26897 -12.97147 36925 ft 474 kts 14°
2026-04-20 16:06 46.33282 -12.94850 36919 ft 472 kts 14°
2026-04-20 16:07 46.39648 -12.92553 36920 ft 471 kts 14°
2026-04-20 16:07 46.45984 -12.90262 36920 ft 469 kts 14°
2026-04-20 16:08 46.52303 -12.87971 36920 ft 467 kts 14°
2026-04-20 16:08 46.58564 -12.85696 36921 ft 465 kts 14°
2026-04-20 16:09 46.64842 -12.83410 36926 ft 464 kts 14°
2026-04-20 16:09 46.71102 -12.81124 36925 ft 463 kts 14°
2026-04-20 16:10 46.77363 -12.78833 36931 ft 463 kts 14°
2026-04-20 16:10 46.83617 -12.76539 36931 ft 463 kts 14°
2026-04-20 16:11 46.89873 -12.74238 36935 ft 464 kts 14°
2026-04-20 16:11 46.96145 -12.71926 36930 ft 464 kts 14°
2026-04-20 16:12 47.02380 -12.69622 36934 ft 465 kts 14°
2026-04-20 16:12 47.08653 -12.67299 36938 ft 466 kts 14°
2026-04-20 16:13 47.14943 -12.64963 36939 ft 466 kts 14°
2026-04-20 16:13 47.21235 -12.62621 36937 ft 467 kts 14°
2026-04-20 16:14 47.27530 -12.60273 36943 ft 467 kts 14°
2026-04-20 16:14 47.33827 -12.57917 36939 ft 467 kts 14°
2026-04-20 16:15 47.40128 -12.55555 36936 ft 466 kts 14°
2026-04-20 16:15 47.46416 -12.53191 36956 ft 466 kts 14°
2026-04-20 16:16 47.52696 -12.50825 36949 ft 465 kts 14°
2026-04-20 16:16 47.58923 -12.48472 36945 ft 464 kts 14°
2026-04-20 16:17 47.65195 -12.46098 36959 ft 464 kts 14°
2026-04-20 16:17 47.71447 -12.43724 36949 ft 463 kts 13°
2026-04-20 16:18 47.77688 -12.41350 36951 ft 462 kts 13°
2026-04-20 16:18 47.83913 -12.38975 36963 ft 461 kts 13°
2026-04-20 16:19 47.90092 -12.36612 36953 ft 461 kts 13°
2026-04-20 16:19 47.96293 -12.34234 36957 ft 460 kts 13°
2026-04-20 16:20 48.02507 -12.31846 36974 ft 460 kts 13°
2026-04-20 16:20 48.08701 -12.29460 36977 ft 460 kts 13°
2026-04-20 16:21 48.14898 -12.27066 36968 ft 460 kts 13°
2026-04-20 16:21 48.21097 -12.24666 36983 ft 460 kts 13°
2026-04-20 16:22 48.27295 -12.22260 36983 ft 459 kts 13°
2026-04-20 16:22 48.33484 -12.19851 36978 ft 459 kts 13°
2026-04-20 16:23 48.39635 -12.17451 36981 ft 459 kts 13°
2026-04-20 16:23 48.45818 -12.15033 36985 ft 459 kts 13°
2026-04-20 16:24 48.51994 -12.12611 36986 ft 459 kts 13°
2026-04-20 16:24 48.58172 -12.10183 36990 ft 459 kts 13°
2026-04-20 16:25 48.64347 -12.07749 36992 ft 459 kts 13°
2026-04-20 16:25 48.70521 -12.05309 37000 ft 458 kts 13°
2026-04-20 16:26 48.76701 -12.02861 37005 ft 458 kts 13°
2026-04-20 16:26 48.82842 -12.00201 36997 ft 459 kts 21°
2026-04-20 16:27 48.88376 -11.95428 37031 ft 460 kts 35°
2026-04-20 16:27 48.93551 -11.89659 37013 ft 460 kts 36°
2026-04-20 16:28 48.98694 -11.83984 37021 ft 460 kts 35°
2026-04-20 16:28 49.03903 -11.78322 37018 ft 460 kts 35°
2026-04-20 16:29 49.09217 -11.72907 37030 ft 459 kts 31°
2026-04-20 16:29 49.14677 -11.67822 37036 ft 459 kts 30°
2026-04-20 16:30 49.19222 -11.63609 37038 ft 459 kts 31°
2026-04-20 16:30 49.25554 -11.57658 37045 ft 459 kts 31°
2026-04-20 16:31 49.30108 -11.53333 37043 ft 459 kts 31°
2026-04-20 16:31 49.35536 -11.48156 37047 ft 459 kts 31°
2026-04-20 16:32 49.40968 -11.42960 37053 ft 459 kts 31°
2026-04-20 16:32 49.46356 -11.37795 37062 ft 459 kts 31°
2026-04-20 16:33 49.51778 -11.32584 37063 ft 460 kts 31°
2026-04-20 16:33 49.57198 -11.27361 37071 ft 460 kts 31°
2026-04-20 16:34 49.62620 -11.22123 37074 ft 460 kts 32°
2026-04-20 16:34 49.68038 -11.16874 37083 ft 460 kts 32°
2026-04-20 16:35 49.73459 -11.11609 37083 ft 460 kts 32°
2026-04-20 16:35 49.78875 -11.06335 37090 ft 459 kts 32°
2026-04-20 16:36 49.84284 -11.01053 37093 ft 459 kts 32°
2026-04-20 16:36 49.89648 -10.95802 37099 ft 459 kts 32°
2026-04-20 16:37 49.95044 -10.90504 37103 ft 459 kts 32°
2026-04-20 16:37 50.00433 -10.85200 37104 ft 458 kts 32°
2026-04-20 16:38 50.05820 -10.79883 37115 ft 458 kts 32°
2026-04-20 16:38 50.11205 -10.74553 37112 ft 457 kts 32°
2026-04-20 16:39 50.16566 -10.69233 37119 ft 457 kts 32°
2026-04-20 16:39 50.21934 -10.63892 37126 ft 457 kts 32°
2026-04-20 16:40 50.27287 -10.58550 37127 ft 456 kts 32°
2026-04-20 16:40 50.32628 -10.53208 37133 ft 456 kts 33°
2026-04-20 16:41 50.37963 -10.47856 37131 ft 455 kts 33°
2026-04-20 16:41 50.43253 -10.42535 37141 ft 454 kts 33°
2026-04-20 16:42 50.48567 -10.37175 37144 ft 454 kts 33°
2026-04-20 16:42 50.53877 -10.31805 37148 ft 453 kts 33°
2026-04-20 16:43 50.59172 -10.26436 37163 ft 452 kts 33°
2026-04-20 16:43 50.64458 -10.21061 37148 ft 452 kts 33°
2026-04-20 16:44 50.69689 -10.15567 37147 ft 451 kts 35°
2026-04-20 16:44 50.74795 -10.09808 37152 ft 451 kts 36°
2026-04-20 16:45 50.79881 -10.04026 37166 ft 450 kts 36°
2026-04-20 16:45 50.84974 -9.98271 37161 ft 450 kts 36°
2026-04-20 16:46 50.90073 -9.92523 37167 ft 449 kts 36°
2026-04-20 16:46 50.95165 -9.86777 37177 ft 449 kts 36°
2026-04-20 16:47 51.00247 -9.81026 37181 ft 448 kts 36°
2026-04-20 16:47 51.05323 -9.75265 37176 ft 448 kts 36°
2026-04-20 16:48 51.10390 -9.69497 37184 ft 448 kts 36°
2026-04-20 16:48 51.15452 -9.63720 37187 ft 447 kts 36°
2026-04-20 16:49 51.20479 -9.57966 37191 ft 447 kts 36°
2026-04-20 16:49 51.25527 -9.52173 37192 ft 447 kts 36°
2026-04-20 16:50 51.30566 -9.46375 37193 ft 446 kts 36°
2026-04-20 16:50 51.35597 -9.40569 37195 ft 446 kts 36°
2026-04-20 16:51 51.40631 -9.34743 37201 ft 445 kts 36°
2026-04-20 16:51 51.45645 -9.28925 37205 ft 445 kts 36°
2026-04-20 16:52 51.50663 -9.23086 37207 ft 445 kts 36°
2026-04-20 16:52 51.55674 -9.17239 37206 ft 445 kts 35°
2026-04-20 16:53 51.60675 -9.11386 37216 ft 445 kts 35°
2026-04-20 16:53 51.62582 -9.09151 37212 ft 445 kts 35°
2026-04-20 16:54 51.67406 -9.03485 37214 ft 444 kts 35°
2026-04-20 16:54 51.72394 -8.97609 37215 ft 444 kts 35°
2026-04-20 16:55 51.77377 -8.91725 37219 ft 443 kts 35°
2026-04-20 16:55 51.82312 -8.85879 37215 ft 442 kts 35°
2026-04-20 16:56 51.87262 -8.80000 37217 ft 441 kts 35°
2026-04-20 16:56 51.92206 -8.74112 37210 ft 440 kts 35°
2026-04-20 16:57 51.97129 -8.68232 37213 ft 439 kts 35°
2026-04-20 16:57 52.02039 -8.62350 37211 ft 438 kts 35°
2026-04-20 16:58 52.06936 -8.56468 37216 ft 437 kts 35°
2026-04-20 16:58 52.11829 -8.50576 37213 ft 437 kts 35°
2026-04-20 16:59 52.16709 -8.44682 37211 ft 437 kts 35°
2026-04-20 16:59 52.21579 -8.38785 37219 ft 436 kts 35°
2026-04-20 17:00 52.28845 -8.29953 37220 ft 436 kts 35°
2026-04-20 17:01 52.33702 -8.24030 37230 ft 435 kts 35°
2026-04-20 17:01 52.38553 -8.18097 37229 ft 435 kts 35°
2026-04-20 17:02 52.43396 -8.12158 37235 ft 435 kts 35°
2026-04-20 17:02 52.48237 -8.06203 37239 ft 435 kts 35°
2026-04-20 17:03 52.53074 -8.00237 37241 ft 435 kts 35°
2026-04-20 17:03 52.57905 -7.94261 37227 ft 434 kts 34°
2026-04-20 17:04 52.62719 -7.88289 37241 ft 432 kts 34°
2026-04-20 17:04 52.67500 -7.82342 37250 ft 430 kts 34°
2026-04-20 17:05 52.72261 -7.76402 37231 ft 428 kts 34°
2026-04-20 17:05 52.77014 -7.70457 37248 ft 427 kts 34°
2026-04-20 17:06 52.81743 -7.64525 37239 ft 427 kts 34°
2026-04-20 17:06 52.86468 -7.58582 37251 ft 427 kts 34°
2026-04-20 17:07 52.91171 -7.52650 37246 ft 428 kts 34°
2026-04-20 17:07 52.95907 -7.46659 37249 ft 429 kts 34°
2026-04-20 17:08 53.00660 -7.40631 37248 ft 430 kts 34°
2026-04-20 17:08 53.05413 -7.34583 37255 ft 431 kts 34°
2026-04-20 17:09 53.10178 -7.28504 37246 ft 432 kts 34°
2026-04-20 17:09 53.14947 -7.22402 37247 ft 433 kts 34°
2026-04-20 17:10 53.19721 -7.16274 37241 ft 433 kts 34°
2026-04-20 17:10 53.24484 -7.10144 37256 ft 432 kts 34°
2026-04-20 17:11 53.29247 -7.03996 37247 ft 431 kts 34°
2026-04-20 17:11 53.33983 -6.97866 37252 ft 430 kts 34°
2026-04-20 17:12 53.38714 -6.91724 37254 ft 429 kts 34°
2026-04-20 17:12 53.43396 -6.85629 37257 ft 428 kts 34°
2026-04-20 17:13 53.48093 -6.79497 37259 ft 427 kts 33°
2026-04-20 17:13 53.52785 -6.73353 37263 ft 427 kts 33°
2026-04-20 17:14 53.57462 -6.67212 37268 ft 426 kts 33°
2026-04-20 17:14 53.62128 -6.61067 37277 ft 426 kts 33°
2026-04-20 17:15 53.66007 -6.55946 37273 ft 426 kts 33°
2026-04-20 17:15 53.70675 -6.49765 37274 ft 426 kts 33°
2026-04-20 17:16 53.75334 -6.43579 37276 ft 427 kts 33°
2026-04-20 17:16 53.80005 -6.37360 37284 ft 428 kts 33°
2026-04-20 17:17 53.84685 -6.31108 37283 ft 428 kts 33°
2026-04-20 17:17 53.89330 -6.24883 37271 ft 423 kts 33°
2026-04-20 17:18 53.93916 -6.18721 37295 ft 420 kts 33°
2026-04-20 17:18 53.98471 -6.12584 37270 ft 410 kts 33°
2026-04-20 17:18 54.00665 -6.09615 37254 ft 396 kts 33°
2026-04-20 17:19 54.02839 -6.06800 36955 ft 388 kts 28°
2026-04-20 17:19 54.05175 -6.04552 36209 ft 389 kts 21°
2026-04-20 17:19 54.07631 -6.02549 35615 ft 391 kts 20°
2026-04-20 17:19 54.10090 -6.00594 35261 ft 387 kts 20°
2026-04-20 17:20 54.12510 -5.98666 34998 ft 379 kts 20°
2026-04-20 17:20 54.14872 -5.96767 34567 ft 371 kts 20°
2026-04-20 17:20 54.17180 -5.94896 34034 ft 365 kts 20°
2026-04-20 17:20 54.19462 -5.93034 33349 ft 363 kts 19°
2026-04-20 17:21 54.21720 -5.91185 32893 ft 355 kts 19°
2026-04-20 17:21 54.23932 -5.89364 32479 ft 347 kts 19°
2026-04-20 17:21 54.26080 -5.87593 32125 ft 339 kts 19°
2026-04-20 17:21 54.28178 -5.85860 31761 ft 331 kts 19°
2026-04-20 17:22 54.30228 -5.84166 31443 ft 325 kts 19°
2026-04-20 17:22 54.32274 -5.82480 31132 ft 328 kts 18°
2026-04-20 17:22 54.34365 -5.80762 30835 ft 341 kts 19°
2026-04-20 17:22 54.36552 -5.78968 30480 ft 356 kts 19°
2026-04-20 17:23 54.38785 -5.77117 30069 ft 355 kts 19°
2026-04-20 17:23 54.40996 -5.75273 29669 ft 351 kts 19°
2026-04-20 17:23 54.43177 -5.73450 29319 ft 347 kts 19°
2026-04-20 17:23 54.45340 -5.71643 28960 ft 343 kts 19°
2026-04-20 17:24 54.47476 -5.69861 28617 ft 339 kts 19°
2026-04-20 17:24 54.49586 -5.68098 28268 ft 336 kts 19°
2026-04-20 17:24 54.51678 -5.66351 27920 ft 332 kts 19°
2026-04-20 17:24 54.53752 -5.64619 27567 ft 330 kts 19°
2026-04-20 17:25 54.55809 -5.62896 27224 ft 327 kts 19°
2026-04-20 17:25 54.57846 -5.61189 26878 ft 325 kts 19°
2026-04-20 17:25 54.59823 -5.59257 26540 ft 328 kts 28°
2026-04-20 17:25 54.61606 -5.56769 26229 ft 330 kts 34°
2026-04-20 17:26 54.63325 -5.54157 25895 ft 328 kts 35°
2026-04-20 17:26 54.65022 -5.51545 25572 ft 327 kts 35°
2026-04-20 17:26 54.66697 -5.48969 25250 ft 325 kts 35°
2026-04-20 17:26 54.68409 -5.46345 24926 ft 325 kts 35°
2026-04-20 17:27 54.70081 -5.43791 24616 ft 325 kts 35°
2026-04-20 17:27 54.71783 -5.41196 24292 ft 329 kts 35°
2026-04-20 17:27 54.73548 -5.38511 23939 ft 338 kts 36°
2026-04-20 17:27 54.75326 -5.35800 23545 ft 341 kts 36°
2026-04-20 17:28 54.77077 -5.33123 23180 ft 339 kts 36°
2026-04-20 17:28 54.78849 -5.30406 22902 ft 334 kts 36°
2026-04-20 17:28 54.80597 -5.27730 22446 ft 337 kts 36°
2026-04-20 17:28 54.82340 -5.25062 22005 ft 339 kts 37°
2026-04-20 17:29 54.84132 -5.22314 21552 ft 340 kts 37°
2026-04-20 17:29 54.85906 -5.19589 21082 ft 341 kts 37°
2026-04-20 17:29 54.87654 -5.16927 20818 ft 335 kts 34°
2026-04-20 17:29 54.89582 -5.14685 20554 ft 325 kts 23°
2026-04-20 17:30 54.91557 -5.12960 20309 ft 319 kts 22°
2026-04-20 17:30 54.93542 -5.11281 20050 ft 316 kts 22°
2026-04-20 17:30 54.95513 -5.09613 19801 ft 315 kts 22°
2026-04-20 17:30 54.97465 -5.07946 19567 ft 310 kts 22°
2026-04-20 17:31 54.99396 -5.06285 19253 ft 308 kts 23°
2026-04-20 17:31 55.01312 -5.04628 18948 ft 307 kts 23°
2026-04-20 17:31 55.03219 -5.02974 18623 ft 305 kts 23°
2026-04-20 17:31 55.05117 -5.01323 18278 ft 304 kts 23°
2026-04-20 17:32 55.07030 -4.99657 17920 ft 303 kts 24°
2026-04-20 17:32 55.08890 -4.98034 17599 ft 301 kts 24°
2026-04-20 17:32 55.10660 -4.96096 17197 ft 307 kts 41°
2026-04-20 17:32 55.11930 -4.93079 16790 ft 312 kts 60°
2026-04-20 17:33 55.12861 -4.89590 16385 ft 314 kts 64°
2026-04-20 17:33 55.13724 -4.86067 15977 ft 315 kts 64°
2026-04-20 17:33 55.14574 -4.82532 15567 ft 316 kts 65°
2026-04-20 17:33 55.15426 -4.78993 15181 ft 314 kts 65°
2026-04-20 17:34 55.16266 -4.75522 14789 ft 307 kts 65°
2026-04-20 17:34 55.17104 -4.72084 14424 ft 307 kts 65°
2026-04-20 17:34 55.17949 -4.68635 13998 ft 309 kts 65°
2026-04-20 17:34 55.18788 -4.65216 13543 ft 310 kts 65°
2026-04-20 17:35 55.19641 -4.61742 13096 ft 310 kts 65°
2026-04-20 17:35 55.20482 -4.58317 12637 ft 304 kts 65°
2026-04-20 17:35 55.21317 -4.54909 12174 ft 298 kts 65°
2026-04-20 17:35 55.22129 -4.51598 11730 ft 292 kts 65°
2026-04-20 17:36 55.22923 -4.48357 11298 ft 288 kts 65°
2026-04-20 17:36 55.23704 -4.45164 10868 ft 284 kts 65°
2026-04-20 17:36 55.24475 -4.42005 10444 ft 280 kts 65°
2026-04-20 17:36 55.25239 -4.38878 10002 ft 277 kts 65°
2026-04-20 17:37 55.26059 -4.35856 9519 ft 272 kts 53°
2026-04-20 17:37 55.27389 -4.33567 9092 ft 266 kts 36°
2026-04-20 17:37 55.28876 -4.31666 8636 ft 264 kts 34°
2026-04-20 17:37 55.30380 -4.29833 8143 ft 263 kts 34°
2026-04-20 17:38 55.31887 -4.28026 7638 ft 263 kts 34°
2026-04-20 17:38 55.33409 -4.26228 7141 ft 263 kts 34°
2026-04-20 17:38 55.34920 -4.24468 6790 ft 257 kts 34°
2026-04-20 17:38 55.36377 -4.22789 6504 ft 251 kts 34°
2026-04-20 17:39 55.37824 -4.21134 6273 ft 244 kts 34°
2026-04-20 17:39 55.39233 -4.19531 6164 ft 239 kts 34°
2026-04-20 17:39 55.40681 -4.17880 6081 ft 256 kts 34°
2026-04-20 17:39 55.42185 -4.16168 5962 ft 258 kts 34°
2026-04-20 17:40 55.43704 -4.14442 5838 ft 260 kts 34°
2026-04-20 17:40 55.45232 -4.12705 5663 ft 263 kts 34°
2026-04-20 17:40 55.46772 -4.10955 5487 ft 264 kts 34°
2026-04-20 17:40 55.48333 -4.09253 5305 ft 263 kts 31°
2026-04-20 17:41 55.49925 -4.07698 5131 ft 260 kts 30°
2026-04-20 17:41 55.51511 -4.06185 4959 ft 257 kts 30°
2026-04-20 17:41 55.53069 -4.04694 4819 ft 252 kts 30°
2026-04-20 17:41 55.54576 -4.03243 4742 ft 248 kts 30°
2026-04-20 17:42 55.56093 -4.01773 4653 ft 248 kts 30°
2026-04-20 17:42 55.57609 -4.00297 4612 ft 250 kts 31°
2026-04-20 17:42 55.59138 -3.98801 4563 ft 251 kts 31°
2026-04-20 17:42 55.60663 -3.97306 4512 ft 250 kts 31°
2026-04-20 17:43 55.62184 -3.95813 4462 ft 250 kts 31°
2026-04-20 17:43 55.63698 -3.94324 4409 ft 249 kts 31°
2026-04-20 17:43 55.65220 -3.92824 4376 ft 251 kts 31°
2026-04-20 17:43 55.66748 -3.91318 4356 ft 251 kts 31°
2026-04-20 17:44 55.68279 -3.89804 4331 ft 253 kts 31°
2026-04-20 17:44 55.69822 -3.88279 4309 ft 255 kts 30°
2026-04-20 17:44 55.71370 -3.86745 4278 ft 254 kts 30°
2026-04-20 17:44 55.72908 -3.85224 4251 ft 251 kts 31°
2026-04-20 17:45 55.74345 -3.83799 4233 ft 247 kts 31°
2026-04-20 17:45 55.75822 -3.82334 4194 ft 240 kts 31°
2026-04-20 17:45 55.77273 -3.80893 4136 ft 240 kts 31°
2026-04-20 17:45 55.78720 -3.79455 4041 ft 237 kts 31°
2026-04-20 17:46 55.80144 -3.78039 4017 ft 233 kts 31°
2026-04-20 17:46 55.81409 -3.76345 3990 ft 223 kts 52°
2026-04-20 17:46 55.82316 -3.74194 3997 ft 214 kts 56°
2026-04-20 17:46 55.83144 -3.72021 4003 ft 214 kts 58°
2026-04-20 17:47 55.83962 -3.69798 4010 ft 219 kts 57°
2026-04-20 17:47 55.84783 -3.67542 3916 ft 216 kts 59°
2026-04-20 17:47 55.85573 -3.65238 3649 ft 218 kts 60°
2026-04-20 17:47 55.86346 -3.62938 3352 ft 214 kts 60°
2026-04-20 17:48 55.87096 -3.60702 3067 ft 207 kts 60°
2026-04-20 17:48 55.87813 -3.58567 2785 ft 195 kts 60°
2026-04-20 17:48 55.88486 -3.56566 2525 ft 176 kts 61°
2026-04-20 17:48 55.89086 -3.54782 2278 ft 160 kts 60°
2026-04-20 17:49 55.89627 -3.53174 2105 ft 141 kts 61°
2026-04-20 17:49 55.90122 -3.51698 1904 ft 137 kts 60°
2026-04-20 17:49 55.90620 -3.50218 1701 ft 140 kts 61°
2026-04-20 17:49 55.91117 -3.48743 1516 ft 141 kts 60°
2026-04-20 17:50 55.91622 -3.47249 1329 ft 141 kts 60°
2026-04-20 17:50 55.92126 -3.45750 1106 ft 139 kts 59°
2026-04-20 17:50 55.92618 -3.44290 878 ft 136 kts 60°
2026-04-20 17:50 55.93101 -3.42847 717 ft 135 kts 59°
2026-04-20 17:51 55.93590 -3.41403 493 ft 138 kts 58°
2026-04-20 17:51 55.94090 -3.39931 296 ft 138 kts 60°
2026-04-20 17:51 55.94580 -3.38484 126 ft 133 kts 59°
2026-04-20 17:51 55.94985 -3.37296 111 ft 83 kts 59°
2026-04-20 17:52 55.95172 -3.36743 113 ft 29 kts 59°
2026-04-20 17:52 55.95256 -3.36478 110 ft 16 kts 81°
2026-04-20 17:52 55.95203 -3.36362 111 ft 9 kts 149°
2026-04-20 17:52 55.95181 -3.36339 111 ft 0 kts 149°
2026-04-20 17:54 55.95163 -3.36322 111 ft 5 kts 159°
2026-04-20 17:55 55.95123 -3.36333 110 ft 6 kts 212°
2026-04-20 17:55 55.95104 -3.36369 111 ft 6 kts 228°
2026-04-20 17:55 55.95078 -3.36392 111 ft 4 kts 187°
2026-04-20 17:55 55.95050 -3.36385 111 ft 4 kts 159°
2026-04-20 17:56 55.95030 -3.36352 111 ft 4 kts 127°
2026-04-20 17:56 55.95017 -3.36310 110 ft 4 kts 117°
2026-04-20 17:56 55.95007 -3.36274 111 ft 2 kts 117°
2026-04-20 17:56 55.95002 -3.36256 111 ft 1 kts 117°
2026-04-20 17:57 55.94999 -3.36246 111 ft 0 kts 117°